STARLINK-37024, 68106

Orbit data source: Space-Track

STARLINK-37024, 68106 is a payload satellite owned by SpaceX/Seattle (US) in SSO that was launched on Sun, 08 Mar 2026 UTC via an FALCON 9 launch vehicle from the Air Force Western Test Range (AFWTR). Payload-class satellites include a variety of spacecraft equipped with specific instruments for various scientific and technological missions. These include communications satellites like Starlink; space stations such as the ISS; scientific satellites like the Hubble; Earth observation satellites from companies like Planet Labs, Umbra, and HawkEye 360; GPS; miniature CubeSats for education and research; and military/defense satellites.

Loading next visibility...
Identifier
68106, 2026-044F
Orbit
SSO
Country
Flag of USUS
Related business
Manufacturer
SpaceX/Seattle
Mission
Operational Commercial Communications
Bus & Motor
STARLINK V2MO, Unknown motor
Mass
575 kg wet, ~530 kg dry
Launch date (UTC)
2026-03-08 (6 months ago)
Launch vehicle
FALCON 9
Launch site
Air Force Western Test Range (AFWTR)
Object type
Payload
Rocket body
Debris
Shape & HBR
Box + 1 Pan, 17.7 m
Radar Cross Section
41.120 m², Large (>1 m²)

Expand to show TLE details & history
Last TLE update: 15 hours ago

TLE from 15 hours ago
0 STARLINK-37024
1 68106U 26044F   26246.78553205  .00014422  00000-0  44793-3 0  9995
2 68106  97.2862 205.9313 0000973  83.7865 276.3488 15.33463794 28874
Epoch: 2026-09-03T18:51Z
TLE epoch observation values (Epoch: 2026-09-03T18:51:09.969Z)
Latitude
-0.00006°
Longitude
-59.77895°
Altitude
468.526 km
Speed
7.632 km/s
True Right ascension
13h 43m 43s
True Declination
0° 00' 00"
Sunlit
Object was in daylight at epoch
Visualization orbit readout
Latitude
Unknown
Longitude
Unknown
Altitude
Unknown
Speed
Unknown
Apparent Right ascension
Unknown
Apparent Declination
Unknown
Sunlit
N/A
Visualization observer readout
Local Sidereal Time
01:44:22
Azimuth
Unknown
Elevation
Unknown
Doppler factor
Unknown
Orbital elements
Apogee altitude
463.096 km
Perigee altitude
461.764 km
Semi-major axis
6,840.567 km
Eccentricity
0.0001
Inclination
97.2862°
RAAN
205.9313°
Arg. of periapsis
83.7865°
True anomaly
276.33772°
Mean anomaly
276.3488°
Eccentric anomaly
276.34326°
Mean motion
3.83623 °/min
Orbital period
93.84 mins
BSTAR
0.00044793
Loading maneuver chart data...
Computing Atmospheric mass density...
Loading historical data...
Loading historical data...
Loading historical data...
Loading historical data...
Loading historical data...
Loading historical data...
Loading historical data...

Documentation

Showing up to 5 results
|